This demonstration page uses our WeatherBlox Daily Observations layout. Learn more.

Left ArrowRight Arrow

Hourly Observations for December 20, 2021

Temp ( °F °C ) Dew Point ( °F °C ) Humidity (%) Winds ( mph kmh ) Pressure ( in mb ) Visibility ( mi km ) Precip ( " mm )
12:56 am 00:56 Clear 26 -3.3 18 -7.6 72 72 SSE 6 9 30.08 1019 10 16 0.00 0.00
1:56 am 01:56 Clear 25 -3.8 18 -7.8 74 74 SE 5 7 30.07 1018 10 16 0.00 0.00
2:56 am 02:56 Clear 24 -4.2 18 -8 75 75 Calm 30.10 1019 10 16 0.00 0.00
3:56 am 03:56 Clear 24 -4.3 18 -7.9 76 76 SSE 3 6 30.08 1019 10 16 0.00 0.00
4:56 am 04:56 Clear 24 -4.3 18 -7.7 77 77 Calm 30.07 1018 10 16 0.00 0.00
5:56 am 05:56 Clear 24 -4.6 18 -8 77 77 Calm 30.08 1019 10 16 0.00 0.00
6:56 am 06:56 Clear 24 -4.6 18 -8 77 77 Calm 30.09 1019 10 16 0.00 0.00
7:56 am 07:56 Sunny 22 -5.7 17 -8.6 80 80 Calm 30.11 1020 10 16 0.00 0.00
8:56 am 08:56 Sunny 25 -4 18 -7.6 76 76 WNW 5 7 30.16 1021 7 11 0.00 0.00
9:56 am 09:56 Sunny 32 0.2 19 -7.1 58 58 N 14 22 30.21 1023 10 16 0.00 0.00
10:56 am 10:56 Sunny 33 0.8 20 -6.5 59 59 N 14 22 30.25 1024 10 16 0.00 0.00
11:56 am 11:56 Sunny 35 1.5 20 -6.8 54 54 NNW 14 22 30.27 1025 10 16 0.00 0.00
12:56 pm 12:56 Sunny 36 2 15 -9.3 43 43 N 14 22 30.28 1025 10 16 0.00 0.00
1:56 pm 13:56 Partly Cloudy 35 1.8 12 -11 38 38 N 18 30 30.29 1026 10 16 0.00 0.00
2:56 pm 14:56 Mostly Cloudy 31 -0.3 11 -11.7 42 42 N 16 26 30.31 1027 10 16 0.00 0.00
3:56 pm 15:56 Mostly Cloudy 29 -1.6 13 -10.7 50 50 N 17 28 30.34 1027 10 16 0.00 0.00
4:56 pm 16:56 Sunny 28 -2 12 -11.1 50 50 N 8 13 30.35 1028 10 16 0.00 0.00
5:56 pm 17:56 Clear 27 -3 10 -12 50 50 N 5 7 30.35 1028 10 16 0.00 0.00
6:56 pm 18:56 Mostly Clear 25 -4 9 -12.7 51 51 NNW 5 7 30.35 1028 10 16 0.00 0.00
7:56 pm 19:56 Clear 24 -4.7 11 -11.7 58 58 NW 5 7 30.35 1028 10 16 0.00 0.00
8:56 pm 20:56 Clear 23 -4.8 9 -12.7 54 54 NNW 3 6 30.33 1027 10 16 0.00 0.00
9:56 pm 21:56 Clear 23 -5.2 10 -12 59 59 NW 3 6 30.30 1026 10 16 0.00 0.00
10:56 pm 22:56 undefined 22 -5.7 10 -12.2 61 61 Calm 30.27 1025 10 16 0.00 0.00
11:56 pm 23:56 Clear 20 -6.7 11 -11.8 67 67 Calm 30.25 1025 10 16 0.00 0.00

Powered by AerisWeather